Regional Weather Roundup
Issued by NWS

Home | Current Version | Previous Version | Graphics & Text | Print | Product List | Glossary On
Versions: 1 2 3 4 5 6 7 8 9 10 11 12 13 14 15 16 17 18 19 20 21 22 23 24 25 26 27 28 29 30 31 32 33 34 35 36 37 38 39 40 41 42 43 44 45 46 47 48 49 50
000
ASUS43 KFSD 282110
RWRSD

WEATHER ROUNDUP FOR SOUTH DAKOTA
NATIONAL WEATHER SERVICE SIOUX FALLS SD
300 PM CST SAT FEB 28 2015

NOTE: "FAIR" INDICATES FEW OR NO CLOUDS BELOW 12,000 FEET WITH NO
SIGNIFICANT WEATHER AND/OR OBSTRUCTIONS TO VISIBILITY.


SDZ001>005-009-010-012>017-282200-
NORTHWEST AND NORTH CENTRAL SOUTH DAKOTA

CITY           SKY/WX    TMP DP  RH WIND       PRES   REMARKS
BUFFALO          N/A     18   6  59 NW21      30.02F WCI   1
FAITH            N/A     23   2  40 NW22      30.10S WCI   8
MOBRIDGE       CLOUDY    26  14  60 NW17      30.09S WCI  13
$$

SDZ012>016-024>037-041>051-057-063-072>074-282200-
SOUTHWEST AND SOUTH CENTRAL SOUTH DAKOTA

CITY           SKY/WX    TMP DP  RH WIND       PRES   REMARKS
RAPID CTY ARPT SUNNY     22  12  65 N21       30.08F WCI   6
PIERRE         SUNNY     32   6  33 NW20G28   30.11S WCI  20
CUSTER         PTSUNNY   25   2  37 W7        29.90F WCI  17
ELLSWORTH AFB  SUNNY     22  10  58 N18       30.07S WCI   7
PHILIP         SUNNY     31   2  29 NW18      30.12F WCI  19
PINE RIDGE     CLOUDY    30   6  36 MISG      30.07F
WINNER         FAIR      36   9  32 NW14      30.11F
$$

SDZ004>011-016>023-039-040-282200-
NORTHEAST SOUTH DAKOTA

CITY           SKY/WX    TMP DP  RH WIND       PRES   REMARKS
ABERDEEN       MOSUNNY   28  14  55 SW16      30.14F WCI  16
WATERTOWN      SUNNY     23  12  62 S21G26    30.15F WCI   8
SISSETON         N/A     25  14  63 SW16      30.17F WCI  12
$$

SDZ017-020-022-023-036>040-048>070-282200-
SOUTHEAST SOUTH DAKOTA

CITY           SKY/WX    TMP DP  RH WIND       PRES   REMARKS
SIOUX FALLS    PTSUNNY   25  13  60 S20G28    30.23F WCI  11
HURON          SUNNY     30  14  51 S13G22    30.15F WCI  20
CHAMBERLAIN    MOSUNNY   34  10  36 W13G18    30.11F WCI  25
MITCHELL       CLOUDY    32  10  40 S18G25    30.19F WCI  20
YANKTON        SUNNY     30  10  43 S17G24    30.25F WCI  18
$$

ABBREVIATIONS USED IN REMARKS
   TC - TEMPERATURE IN CELSIUS
  WCI - WIND CHILL INDEX
   HX - HEAT INDEX
  VSB - VISIBILITY




USA.gov is the U.S. government's official web portal to all federal, state and local government web resources and services.